Weather History for Columbia Airport, CA

Change the Weather History Date:

Tuesday, August 27, 2013

  Actual Average (KMOD) Record (KMOD)
Temperature  
Mean Temperature 72 °F -  
Max Temperature 89 °F 92 °F 104 °F (1944)
Min Temperature 55 °F 62 °F 48 °F (1942)
Degree Days  
Heating Degree Days 0 0  
Month to date heating degree days 0  
Since 1 June heating degree days 3  
Since 1 July heating degree days 0  
Cooling Degree Days 7 12  
Month to date cooling degree days 354  
Year to date cooling degree days 1289  
Since 1 June cooling degree days 1090  
Growing Degree Days 22 (Base 50)    
Moisture  
Dew Point 45 °F    
Average Humidity 42    
Maximum Humidity 72    
Minimum Humidity 17    
Precipitation  
Precipitation 0.00 in 0.00 in 0.09 in (1961)
Month to date precipitation 0.02  
Year to date precipitation 8.77  
Since 1 July precipitation 0.02  
Snow  
Snow 0.00 in - - ()
Month to date snowfall  
Since 1 June snowfall  
Since 1 July snowfall  
Snow Depth -    
Sea Level Pressure  
Sea Level Pressure 29.90 in    
Wind  
Wind Speed 2 mph (West)    
Max Wind Speed 9 mph    
Max Gust Speed 16 mph    
Visibility 8 miles    
Events      
T = Trace of Precipitation, MM = Missing Value Source: NWS Daily Summary

Daily Weather History Graph

Daily Weather History Graph

Search for Another Location

Airport:

Trip Planner

Search our weather history database for the weather conditions in past years. The results will help you decide how hot, cold, wet, or windy it might be!

Date:

Astronomy

Aug. 27, 2013 Rise Set
Actual Time 6:27 AM PDT 7:37 PM PDT
Civil Twilight 6:00 AM PDT 8:05 PM PDT
Nautical Twilight 5:27 AM PDT 8:37 PM PDT
Astronomical Twilight 4:53 AM PDT 9:11 PM PDT
Moon 11:42 PM PDT (8/27) 1:22 PM PDT (8/27)
Length of Visible Light 14h 04m
Length of Day
13h 10m
Waning Gibbous, 56% of the Moon is Illuminated
Aug 27
Waning Gibbous
Aug 28
Last Quarter
Sep 5
New
Sep 12
First Quarter
Sep 19
Full

Hourly Weather History & Observations

Time (PDT) Temp. Dew Point Humidity Pressure Visibility Wind Dir Wind Speed Gust Speed Precip Events Conditions
12:15 AM 59.0 °F 48.2 °F 67% 29.94 in 10.0 mi Calm Calm - N/A   Clear
12:35 AM 59.0 °F 48.2 °F 67% 29.94 in 10.0 mi Calm Calm - N/A   Clear
12:55 AM 59.0 °F 46.4 °F 63% 29.94 in 10.0 mi Calm Calm - N/A   Scattered Clouds
1:15 AM 59.0 °F 48.2 °F 67% 29.94 in 10.0 mi Calm Calm - N/A   Partly Cloudy
1:35 AM 57.2 °F 46.4 °F 67% 29.93 in 10.0 mi Calm Calm - N/A   Clear
1:55 AM 57.2 °F 48.2 °F 72% 29.93 in 10.0 mi Calm Calm - N/A   Clear
2:15 AM 57.2 °F 46.4 °F 67% 29.92 in 10.0 mi Calm Calm - N/A   Clear
2:35 AM 59.0 °F 46.4 °F 63% 29.92 in 10.0 mi Calm Calm - N/A   Clear
2:55 AM 57.2 °F 46.4 °F 67% 29.92 in 10.0 mi Calm Calm - N/A   Clear
3:15 AM 57.2 °F 46.4 °F 67% 29.91 in 10.0 mi Calm Calm - N/A   Clear
3:35 AM 57.2 °F 46.4 °F 67% 29.92 in 10.0 mi NE 3.5 mph - N/A   Scattered Clouds
3:55 AM 57.2 °F 46.4 °F 67% 29.91 in 10.0 mi Calm Calm - N/A   Scattered Clouds
4:15 AM 57.2 °F 46.4 °F 67% 29.91 in 10.0 mi Calm Calm - N/A   Scattered Clouds
4:35 AM 57.2 °F 46.4 °F 67% 29.91 in 10.0 mi Calm Calm - N/A   Mostly Cloudy
4:55 AM 57.2 °F 46.4 °F 67% 29.91 in 10.0 mi Calm Calm - N/A   Scattered Clouds
5:15 AM 55.4 °F 46.4 °F 72% 29.91 in 10.0 mi Calm Calm - N/A   Mostly Cloudy
5:35 AM 57.2 °F 46.4 °F 67% 29.91 in 10.0 mi Calm Calm - N/A   Partly Cloudy
5:55 AM 57.2 °F 46.4 °F 67% 29.91 in 10.0 mi Calm Calm - N/A   Mostly Cloudy
6:15 AM 55.4 °F 46.4 °F 72% 29.91 in 10.0 mi Calm Calm - N/A   Overcast
6:35 AM 57.2 °F 44.6 °F 63% 29.92 in 9.0 mi NE 3.5 mph - N/A   Overcast
6:55 AM 57.2 °F 46.4 °F 67% 29.92 in 7.0 mi Calm Calm - N/A   Overcast
7:15 AM 59.0 °F 46.4 °F 63% 29.91 in 5.0 mi Calm Calm - N/A   Overcast
7:35 AM 60.8 °F 46.4 °F 59% 29.91 in 5.0 mi Calm Calm - N/A   Overcast
7:55 AM 64.4 °F 48.2 °F 56% 29.92 in 3.0 mi Calm Calm - N/A   Overcast
8:15 AM 66.2 °F 48.2 °F 52% 29.91 in 2.5 mi Calm Calm - N/A   Overcast
8:35 AM 71.6 °F 48.2 °F 43% 29.92 in 2.0 mi Calm Calm - N/A   Overcast
8:55 AM 75.2 °F 48.2 °F 38% 29.92 in 1.5 mi Calm Calm - N/A   Scattered Clouds
9:15 AM 75.2 °F 46.4 °F 36% 29.92 in 1.5 mi Calm Calm - N/A   Scattered Clouds
9:35 AM 77.0 °F 48.2 °F 36% 29.92 in 2.5 mi Calm Calm - N/A   Scattered Clouds
9:55 AM 78.8 °F 44.6 °F 30% 29.92 in 2.5 mi Calm Calm - N/A   Partly Cloudy
10:15 AM 80.6 °F 44.6 °F 28% 29.92 in 1.0 mi Calm Calm - N/A   Clear
10:35 AM 82.4 °F 44.6 °F 26% 29.92 in 0.8 mi South 4.6 mph - N/A   Unknown
10:55 AM 82.4 °F 42.8 °F 25% 29.92 in 1.0 mi SSW 5.8 mph - N/A   Clear
11:15 AM 82.4 °F 44.6 °F 26% 29.92 in 1.0 mi South 4.6 mph - N/A   Clear
11:35 AM 84.2 °F 44.6 °F 25% 29.92 in 0.8 mi WSW 4.6 mph - N/A   Unknown
11:55 AM 84.2 °F 44.6 °F 25% 29.91 in 1.2 mi SSW 3.5 mph - N/A   Clear
12:15 PM 86.0 °F 44.6 °F 23% 29.91 in 1.5 mi West 8.1 mph - N/A   Clear
12:35 PM 86.0 °F 44.6 °F 23% 29.91 in 2.5 mi WSW 6.9 mph - N/A   Clear
12:55 PM 86.0 °F 44.6 °F 23% 29.91 in 4.0 mi West 9.2 mph - N/A   Clear
1:15 PM 87.8 °F 42.8 °F 21% 29.90 in 5.0 mi West 6.9 mph - N/A   Clear
1:35 PM 87.8 °F 44.6 °F 22% 29.90 in 6.0 mi WSW 8.1 mph - N/A   Clear
1:55 PM 87.8 °F 44.6 °F 22% 29.90 in 5.0 mi WSW 9.2 mph - N/A   Clear
2:15 PM 89.6 °F 41.0 °F 18% 29.89 in 8.0 mi SW 3.5 mph - N/A   Clear
2:35 PM 89.6 °F 42.8 °F 20% 29.89 in 7.0 mi WSW 8.1 mph - N/A   Clear
2:55 PM 89.6 °F 41.0 °F 18% 29.88 in 5.0 mi SSW 3.5 mph - N/A   Clear
3:15 PM 89.6 °F 39.2 °F 17% 29.88 in 8.0 mi West 3.5 mph - N/A   Scattered Clouds
3:35 PM 89.6 °F 44.6 °F 21% 29.87 in 7.0 mi South 8.1 mph - N/A   Mostly Cloudy
3:55 PM 86.0 °F 41.0 °F 20% 29.87 in 8.0 mi South 4.6 mph 16.1 mph N/A   Mostly Cloudy
4:15 PM 86.0 °F 39.2 °F 19% 29.87 in 9.0 mi WSW 3.5 mph - N/A   Scattered Clouds
4:35 PM 87.8 °F 41.0 °F 19% 29.87 in 10.0 mi WSW 3.5 mph - N/A   Mostly Cloudy
4:55 PM 86.0 °F 39.2 °F 19% 29.86 in 10.0 mi WSW 5.8 mph - N/A   Mostly Cloudy
5:15 PM 86.0 °F 41.0 °F 20% 29.86 in 10.0 mi West 4.6 mph - N/A   Mostly Cloudy
5:35 PM 84.2 °F 39.2 °F 20% 29.86 in 10.0 mi WSW 4.6 mph - N/A   Mostly Cloudy
5:55 PM 84.2 °F 44.6 °F 25% 29.86 in 10.0 mi WSW 8.1 mph - N/A   Mostly Cloudy
6:15 PM 84.2 °F 44.6 °F 25% 29.86 in 10.0 mi West 8.1 mph - N/A   Mostly Cloudy
6:35 PM 84.2 °F 44.6 °F 25% 29.86 in 10.0 mi West 6.9 mph - N/A   Mostly Cloudy
6:55 PM 82.4 °F 44.6 °F 26% 29.86 in 10.0 mi WNW 4.6 mph - N/A   Mostly Cloudy
7:15 PM 80.6 °F 44.6 °F 28% 29.86 in 10.0 mi NW 4.6 mph - N/A   Overcast
7:35 PM 80.6 °F 44.6 °F 28% 29.87 in 10.0 mi NW 4.6 mph - N/A   Overcast
7:55 PM 78.8 °F 46.4 °F 32% 29.87 in 10.0 mi WNW 5.8 mph - N/A   Overcast
8:15 PM 77.0 °F 46.4 °F 34% 29.88 in 10.0 mi NW 4.6 mph - N/A   Mostly Cloudy
8:35 PM 75.2 °F 46.4 °F 36% 29.88 in 10.0 mi NW 4.6 mph - N/A   Mostly Cloudy
8:55 PM 77.0 °F 46.4 °F 34% 29.89 in 10.0 mi WNW 4.6 mph - N/A   Mostly Cloudy
9:15 PM 75.2 °F 46.4 °F 36% 29.89 in 10.0 mi NW 3.5 mph - N/A   Mostly Cloudy
9:35 PM 73.4 °F 46.4 °F 38% 29.89 in 10.0 mi NW 4.6 mph - N/A   Mostly Cloudy
9:55 PM 71.6 °F 46.4 °F 41% 29.89 in 10.0 mi Calm Calm - N/A   Mostly Cloudy
10:15 PM 69.8 °F 46.4 °F 43% 29.89 in 10.0 mi Calm Calm - N/A   Mostly Cloudy
10:35 PM 68.0 °F 48.2 °F 49% 29.89 in 10.0 mi Calm Calm - N/A   Mostly Cloudy
10:55 PM 68.0 °F 48.2 °F 49% 29.88 in 10.0 mi Calm Calm - N/A   Mostly Cloudy
11:15 PM 68.0 °F 48.2 °F 49% 29.89 in 10.0 mi Calm Calm - N/A   Overcast
11:35 PM 68.0 °F 48.2 °F 49% 29.89 in 10.0 mi Calm Calm - N/A   Mostly Cloudy
11:55 PM 66.2 °F 48.2 °F 52% 29.89 in 10.0 mi ENE 3.5 mph - N/A   Mostly Cloudy